Flag for France Weather past 2 weeks in Orléans, France

Now
54 °F

Overcast.


Feels Like: 53 °F
Forecast: 46 / 62 °F
Wind: 5 mph from Southwest

Location: Orleans Airport

Current Time: Oct 23, 2014 at 12:23:48 PM

Latest Report: Oct 23, 2014 at 12:00 PM


Visibility: N/A

Pressure: 30.30 "Hg

Humidity: 82%

Dew point: 48 °F

Location of OrléansLocation

Historic Weather in Orléans — Graph

°F

Orléans temperature yesterday

Maximum temperature yesterday: 55 °F (at 1:30 PM)
Minimum temperature yesterday: 43 °F (at 7:30 AM)
Average temperature yesterday: 49 °F

Past Weeks' High & Low Weather Summary

 TemperatureHumidityPressure
High77 °F (Oct 18, 4:30 PM)100% (Oct 10, 3:30 AM)30.36 "Hg (Oct 10, 3:30 AM)
Low43 °F (Oct 22, 7:30 AM)49% (Oct 14, 4:30 PM)29.56 "Hg (Oct 8, 5:30 PM)
Average58 °F84%29.92 "Hg
* Reported Oct 8 11:00 AM — Oct 23 11:00 AM, Orléans, Weather by CustomWeather, © 2014

Note: Actual official high and low records may vary slightly from our data, if they occured in-between our weather recording intervals... More about our weather records

Advertising

Orléans weather history for previous 24 hours

 ConditionsComfort  
Time TempWeatherWind HumidityBarometerVisibility
11:00 AM
Oct 23
54 °FOvercast.3 mph82%30.30 "HgN/A
10:30 AM52 °FOvercast.3 mph82%30.30 "HgN/A
10:00 AM52 °FOvercast.2 mph82%30.30 "HgN/A
9:30 AM50 °FOvercast.1 mph88%30.30 "HgN/A
9:00 AM50 °FOvercast.3 mph88%30.30 "HgN/A
8:30 AM50 °FOvercast.5 mph88%30.30 "HgN/A
8:00 AM50 °FOvercast.7 mph88%30.30 "HgN/A
7:30 AM50 °FMostly cloudy.7 mph88%30.27 "HgN/A
7:00 AM50 °FOvercast.7 mph88%30.30 "HgN/A
6:30 AM50 °FMostly cloudy.8 mph88%30.30 "HgN/A
6:00 AM50 °FOvercast.7 mph88%30.30 "HgN/A
5:30 AM50 °FMostly cloudy.6 mph88%30.30 "HgN/A
5:00 AM50 °FMostly cloudy.6 mph88%30.30 "HgN/A
4:30 AM50 °FClear.7 mph88%30.30 "HgN/A
4:00 AM50 °FClear.5 mph88%30.30 "HgN/A
3:30 AM50 °FClear.5 mph88%30.33 "HgN/A
3:00 AM50 °FClear.7 mph94%30.33 "HgN/A
2:30 AM50 °FClear.6 mph88%30.33 "HgN/A
2:00 AM50 °FOvercast.7 mph88%30.33 "HgN/A
1:30 AM50 °FClear.6 mph88%30.33 "HgN/A
1:00 AM50 °FClear.6 mph88%30.33 "HgN/A
12:30 AM50 °FClear.6 mph88%30.33 "HgN/A
12:00 AM50 °FClear.6 mph88%30.33 "HgN/A
11:30 PM
Oct 22
50 °FMostly cloudy.5 mph88%30.33 "HgN/A
11:00 PM50 °FOvercast.7 mph88%30.33 "HgN/A
10:30 PM50 °FMostly cloudy.7 mph82%30.33 "HgN/A
10:00 PM50 °FOvercast.6 mph82%30.33 "HgN/A
9:30 PM50 °FMostly cloudy.6 mph82%30.33 "HgN/A
9:00 PM48 °FClear.6 mph82%30.33 "HgN/A
8:30 PM50 °FPassing clouds.7 mph82%30.33 "HgN/A
8:00 PM50 °FPassing clouds.7 mph82%30.33 "HgN/A
7:30 PM52 °FBroken clouds.6 mph77%30.33 "HgN/A
7:00 PM52 °FPartly sunny.5 mph77%30.33 "HgN/A
6:30 PM52 °FBroken clouds.5 mph77%30.33 "HgN/A
6:00 PM54 °FPassing clouds.6 mph67%30.33 "HgN/A
5:30 PM55 °FPartly sunny.9 mph63%30.33 "HgN/A
5:00 PM55 °FPartly sunny.10 mph63%30.33 "HgN/A
4:30 PM55 °FPartly sunny.10 mph63%30.33 "HgN/A
4:00 PM55 °FPartly sunny.12 mph59%30.33 "HgN/A
3:30 PM55 °FClear.12 mph59%30.33 "HgN/A
3:00 PM55 °FCool.12 mph63%30.33 "HgN/A
2:30 PM55 °FPartly sunny.13 mph59%30.33 "HgN/A
2:00 PM55 °FOvercast.13 mph63%30.36 "HgN/A
1:30 PM55 °FClear.13 mph63%30.36 "HgN/A
1:00 PM54 °FClear.12 mph72%30.36 "HgN/A
12:30 PM54 °FClear.14 mph72%30.36 "HgN/A
12:00 PM52 °FMostly cloudy.12 mph72%30.36 "HgN/A
Weather by CustomWeather, © 2014

See weather overviewHow to use our weather pages